Showing default

GALILEO 18 (26E), 41862

Orbit data source: Space-Track

GALILEO 18 (26E), 41862 is a payload satellite owned by GNSS Agency (ESA) that was launched on Thu, 17 Nov 2016 UTC via an ARIANE 5ES launch vehicle from the French Guiana (FRGUI). Payload-class satellites include a variety of spacecraft equipped with specific instruments for various scientific and technological missions. These include communications satellites like Starlink; space stations such as the ISS; scientific satellites like the Hubble; Earth observation satellites from companies like Planet Labs, Umbra, and HawkEye 360; GPS; miniature CubeSats for education and research; and military/defense satellites.

Loading next visibility...
Identifier
41862, 2016-069D
Orbit
Active
Country
Flag of ESAESA
Related business
Manufacturer
OHB
Mission
Operational Civil Navigation
Bus & Motor
GALILEOSAT, AOCS
Mass
738 kg wet, 700 kg dry
Launch date (UTC)
2016-11-17 (9 years ago)
Launch vehicle
ARIANE 5ES
Launch site
French Guiana (FRGUI)
Object type
Payload
Rocket body
Debris
Shape & HBR
Box + 2 Pan, 7.4 m
Radar Cross Section
9.223 m², Large (>1 m²)

Expand to show TLE details & history
Last TLE update: 3 days ago

TLE from 3 days ago
0 GALILEO 18 (26E)
1 41862U 16069D   25256.24559540  .00000012  00000-0  00000-0 0  9990
2 41862  55.3221 108.7522 0001449 334.1912  25.8867  1.70474019 54926
Epoch: 2025-09-13T05:53Z
TLE epoch observation values (Epoch: 2025-09-13T05:53:39.442Z)
Latitude
Longitude
27.86599°
Altitude
23,218.595 km
Speed
3.67 km/s
True Right ascension
07h 15m 02s
True Declination
0° 00' 00"
Sunlit
Object was in daylight at epoch
Visualization orbit readout
Latitude
Unknown
Longitude
Unknown
Altitude
Unknown
Speed
Unknown
Apparent Right ascension
Unknown
Apparent Declination
Unknown
Sunlit
N/A
Visualization observer readout
Local Sidereal Time
00:04:59
Azimuth
Unknown
Elevation
Unknown
Doppler factor
Unknown
Orbital elements
Apogee altitude
23,226.467 km
Perigee altitude
23,217.888 km
Semi-major axis
29,600.315 km
Eccentricity
0.00014
Inclination
55.3221°
RAAN
108.7522°
Arg. of periapsis
334.1912°
True anomaly
25.89395°
Mean anomaly
25.8867°
Eccentric anomaly
25.89033°
Mean motion
0.42619 °/min
Orbital period
844.7 mins
BSTAR
0
Loading maneuver chart data...
Computing Atmospheric mass density...
Loading historical data...
Loading historical data...
Loading historical data...
Loading historical data...
Loading historical data...
Loading historical data...
Loading historical data...
Other satellites on launch #69 in the year 2016 (2016-11-17 UTC)

Documentation

Showing up to 5 results
|